Spojené s riasovitými oblakmi a s možnosťou niekoľkých búrkových oblakov
Spojené s riasovitými oblakmi a s možnosťou niekoľkých búrkových oblakov
Ľahký dážď, možnosť búrok
Ľahký dážď, možnosť búrok
Ľahký dážď, možnosť búrok
Ľahký dážď, možnosť búrok
Spojené s možnosťou búrkových oblakov
Ľahký dážď, možnosť búrok
Ľahký dážď, možnosť búrok
(°C)
18°
18°
19°
19°
20°
20°
20°
20°
20°
20°
21°
21°
22°
22°
22°
22°
22°
22°
(°C)
19°
20°
21°
21°
21°
21°
21°
21°
21°
JZ
ZJZ
ZSZ
Z
ZSZ
SZ
SSZ
SSZ
SSZ
(km/h)
3-11
5-15
8-21
9-24
10-27
10-28
9-29
10-30
10-30
(mm)
0
0
1.5
0.9
0.1
0.9
0
1.1
1
(%)
6
31
73
93
87
73
47
61
61

Výška Slnka nad obzorom

/ 33.6°
sun-icon
UV 4
05:06
20:38
Zmenšujúci sa polmesiac (222°)
22:24
08:40

Správy METAR pre lokalitu Hvozdnica (LZZI)

Čas Podmienky Teplota/
Rosný bod
Vietor Viditeľnosť Počasie Oblaky Tlak Zmeniť Nespracované
VFR 18°C / 16°C 50º variable 020º to 100º 3kt 9700m - Clouds and Visibility OK 1014 - LZZI 240600Z 05003KT 020V100 CAVOK 18/16 Q1014
VFR 17°C / 15°C 240º 2kt 9700m - Clouds and Visibility OK 1015 - LZZI 240530Z 24002KT CAVOK 17/15 Q1015
VFR 16°C / 15°C 220º variable 120º to 260º 3kt 9700m - Clouds and Visibility OK 1015 - LZZI 240500Z 22003KT 120V260 CAVOK 16/15 Q1015
VFR 16°C / 15°C 1kt 9700m - Clouds and Visibility OK 1014 - LZZI 240430Z VRB01KT CAVOK 16/15 Q1014
VFR 16°C / 15°C 1kt 9700m - Clouds and Visibility OK 1014 - LZZI 240400Z VRB01KT CAVOK 16/15 Q1014
VFR 16°C / 15°C 2kt 9700m - Few Clouds 6000ft 1014 - LZZI 240330Z VRB02KT 9999 FEW060 16/15 Q1014
VFR 16°C / 15°C 110º 3kt 9700m - Few Clouds 5900ft 1014 - LZZI 240300Z 11003KT 9999 FEW059 16/15 Q1014
VFR 17°C / 15°C 100º variable 070º to 130º 3kt 9700m - Few Clouds 5900ft 1014 - LZZI 240230Z 10003KT 070V130 9999 FEW059 17/15 Q1014
VFR 17°C / 15°C 90º 4kt 9700m - Few Clouds 6000ft 1015 - LZZI 240200Z 09004KT 9999 FEW060 17/15 Q1015
VFR 17°C / 15°C 40º 3kt 9700m - Clouds and Visibility OK 1015 - LZZI 240130Z 04003KT CAVOK 17/15 Q1015
VFR 17°C / 15°C 2kt 9700m - Clouds and Visibility OK 1015 - LZZI 240100Z VRB02KT CAVOK 17/15 Q1015
VFR 17°C / 16°C 70º 2kt 9700m - Clouds and Visibility OK 1015 - LZZI 240030Z 07002KT CAVOK 17/16 Q1015
VFR 18°C / 15°C 100º 3kt 9700m - Clouds and Visibility OK 1016 - LZZI 240000Z 10003KT CAVOK 18/15 Q1016
VFR 18°C / 15°C 1kt 9700m - Clouds and Visibility OK 1016 - LZZI 232330Z VRB01KT CAVOK 18/15 Q1016
VFR 17°C / 16°C 2kt 9700m - Clouds and Visibility OK 1016 - LZZI 232300Z VRB02KT CAVOK 17/16 Q1016
VFR 18°C / 15°C 1kt 9700m - Clouds and Visibility OK 1016 - LZZI 232230Z VRB01KT CAVOK 18/15 Q1016
VFR 17°C / 16°C 2kt 9700m - Clouds and Visibility OK 1016 - LZZI 232200Z VRB02KT CAVOK 17/16 Q1016
VFR 18°C / 15°C 1kt 9700m - Clouds and Visibility OK 1016 - LZZI 232130Z VRB01KT CAVOK 18/15 Q1016
VFR 18°C / 15°C 120º 3kt 9700m - Clouds and Visibility OK 1016 - LZZI 232100Z 12003KT CAVOK 18/15 Q1016
VFR 19°C / 15°C variable 0kt 9700m - Clouds and Visibility OK 1016 - LZZI 232030Z 00000KT CAVOK 19/15 Q1016
VFR 20°C / 15°C 2kt 9700m - Clouds and Visibility OK 1016 - LZZI 232000Z VRB02KT CAVOK 20/15 Q1016
VFR 20°C / 17°C 2kt 9700m - Clouds and Visibility OK 1016 - LZZI 231930Z VRB02KT CAVOK 20/17 Q1016
VFR 21°C / 17°C 120º variable 010º to 150º 3kt 9700m - Clouds and Visibility OK 1016 - LZZI 231900Z 12003KT 010V150 CAVOK 21/17 Q1016
VFR 23°C / 15°C 70º 4kt 9700m - Clouds and Visibility OK 1016 - LZZI 231830Z 07004KT CAVOK 23/15 Q1016

VFR

18°C / 16°C

[Viac]
Vietor 50º variable 020º to 100º 3kt
Viditeľnosť 9700m
Počasie -
Oblaky Clouds and Visibility OK
Tlak 1014
Zmeniť -
Nespracované LZZI 240600Z 05003KT 020V100 CAVOK 18/16 Q1014

VFR

17°C / 15°C

[Viac]
Vietor 240º 2kt
Viditeľnosť 9700m
Počasie -
Oblaky Clouds and Visibility OK
Tlak 1015
Zmeniť -
Nespracované LZZI 240530Z 24002KT CAVOK 17/15 Q1015

VFR

16°C / 15°C

[Viac]
Vietor 220º variable 120º to 260º 3kt
Viditeľnosť 9700m
Počasie -
Oblaky Clouds and Visibility OK
Tlak 1015
Zmeniť -
Nespracované LZZI 240500Z 22003KT 120V260 CAVOK 16/15 Q1015

VFR

16°C / 15°C

[Viac]
Vietor 1kt
Viditeľnosť 9700m
Počasie -
Oblaky Clouds and Visibility OK
Tlak 1014
Zmeniť -
Nespracované LZZI 240430Z VRB01KT CAVOK 16/15 Q1014

VFR

16°C / 15°C

[Viac]
Vietor 1kt
Viditeľnosť 9700m
Počasie -
Oblaky Clouds and Visibility OK
Tlak 1014
Zmeniť -
Nespracované LZZI 240400Z VRB01KT CAVOK 16/15 Q1014

VFR

16°C / 15°C

[Viac]
Vietor 2kt
Viditeľnosť 9700m
Počasie -
Oblaky Few Clouds 6000ft
Tlak 1014
Zmeniť -
Nespracované LZZI 240330Z VRB02KT 9999 FEW060 16/15 Q1014

VFR

16°C / 15°C

[Viac]
Vietor 110º 3kt
Viditeľnosť 9700m
Počasie -
Oblaky Few Clouds 5900ft
Tlak 1014
Zmeniť -
Nespracované LZZI 240300Z 11003KT 9999 FEW059 16/15 Q1014

VFR

17°C / 15°C

[Viac]
Vietor 100º variable 070º to 130º 3kt
Viditeľnosť 9700m
Počasie -
Oblaky Few Clouds 5900ft
Tlak 1014
Zmeniť -
Nespracované LZZI 240230Z 10003KT 070V130 9999 FEW059 17/15 Q1014

VFR

17°C / 15°C

[Viac]
Vietor 90º 4kt
Viditeľnosť 9700m
Počasie -
Oblaky Few Clouds 6000ft
Tlak 1015
Zmeniť -
Nespracované LZZI 240200Z 09004KT 9999 FEW060 17/15 Q1015

VFR

17°C / 15°C

[Viac]
Vietor 40º 3kt
Viditeľnosť 9700m
Počasie -
Oblaky Clouds and Visibility OK
Tlak 1015
Zmeniť -
Nespracované LZZI 240130Z 04003KT CAVOK 17/15 Q1015

VFR

17°C / 15°C

[Viac]
Vietor 2kt
Viditeľnosť 9700m
Počasie -
Oblaky Clouds and Visibility OK
Tlak 1015
Zmeniť -
Nespracované LZZI 240100Z VRB02KT CAVOK 17/15 Q1015

VFR

17°C / 16°C

[Viac]
Vietor 70º 2kt
Viditeľnosť 9700m
Počasie -
Oblaky Clouds and Visibility OK
Tlak 1015
Zmeniť -
Nespracované LZZI 240030Z 07002KT CAVOK 17/16 Q1015

VFR

18°C / 15°C

[Viac]
Vietor 100º 3kt
Viditeľnosť 9700m
Počasie -
Oblaky Clouds and Visibility OK
Tlak 1016
Zmeniť -
Nespracované LZZI 240000Z 10003KT CAVOK 18/15 Q1016

VFR

18°C / 15°C

[Viac]
Vietor 1kt
Viditeľnosť 9700m
Počasie -
Oblaky Clouds and Visibility OK
Tlak 1016
Zmeniť -
Nespracované LZZI 232330Z VRB01KT CAVOK 18/15 Q1016

VFR

17°C / 16°C

[Viac]
Vietor 2kt
Viditeľnosť 9700m
Počasie -
Oblaky Clouds and Visibility OK
Tlak 1016
Zmeniť -
Nespracované LZZI 232300Z VRB02KT CAVOK 17/16 Q1016

VFR

18°C / 15°C

[Viac]
Vietor 1kt
Viditeľnosť 9700m
Počasie -
Oblaky Clouds and Visibility OK
Tlak 1016
Zmeniť -
Nespracované LZZI 232230Z VRB01KT CAVOK 18/15 Q1016

VFR

17°C / 16°C

[Viac]
Vietor 2kt
Viditeľnosť 9700m
Počasie -
Oblaky Clouds and Visibility OK
Tlak 1016
Zmeniť -
Nespracované LZZI 232200Z VRB02KT CAVOK 17/16 Q1016

VFR

18°C / 15°C

[Viac]
Vietor 1kt
Viditeľnosť 9700m
Počasie -
Oblaky Clouds and Visibility OK
Tlak 1016
Zmeniť -
Nespracované LZZI 232130Z VRB01KT CAVOK 18/15 Q1016

VFR

18°C / 15°C

[Viac]
Vietor 120º 3kt
Viditeľnosť 9700m
Počasie -
Oblaky Clouds and Visibility OK
Tlak 1016
Zmeniť -
Nespracované LZZI 232100Z 12003KT CAVOK 18/15 Q1016

VFR

19°C / 15°C

[Viac]
Vietor variable 0kt
Viditeľnosť 9700m
Počasie -
Oblaky Clouds and Visibility OK
Tlak 1016
Zmeniť -
Nespracované LZZI 232030Z 00000KT CAVOK 19/15 Q1016

VFR

20°C / 15°C

[Viac]
Vietor 2kt
Viditeľnosť 9700m
Počasie -
Oblaky Clouds and Visibility OK
Tlak 1016
Zmeniť -
Nespracované LZZI 232000Z VRB02KT CAVOK 20/15 Q1016

VFR

20°C / 17°C

[Viac]
Vietor 2kt
Viditeľnosť 9700m
Počasie -
Oblaky Clouds and Visibility OK
Tlak 1016
Zmeniť -
Nespracované LZZI 231930Z VRB02KT CAVOK 20/17 Q1016

VFR

21°C / 17°C

[Viac]
Vietor 120º variable 010º to 150º 3kt
Viditeľnosť 9700m
Počasie -
Oblaky Clouds and Visibility OK
Tlak 1016
Zmeniť -
Nespracované LZZI 231900Z 12003KT 010V150 CAVOK 21/17 Q1016

VFR

23°C / 15°C

[Viac]
Vietor 70º 4kt
Viditeľnosť 9700m
Počasie -
Oblaky Clouds and Visibility OK
Tlak 1016
Zmeniť -
Nespracované LZZI 231830Z 07004KT CAVOK 23/15 Q1016

Správy TAF pre lokalitu Hvozdnica (LZZI)

From till


From till Wind 2kt. Visibility 9700m. Few Clouds 4500ft.
Becoming from till
Temporarly from till Thunderstorm Rain . Scattered Clouds 2700ft. Broken Clouds 4000ft.

Nespracované: TAF LZZI 240515Z 2406/2415 VRB02KT 9999 FEW045 BECMG 2408/2410 30006KT TEMPO 2409/2415 TSRA SCT027CB BKN040

Radar a krátkodobá predpoveď zrážok pre Hvozdnica

Mrholenie
Slabý
Mierne
Ťažké
Veľmi ťažké
Krúpy

Značka polohy je umiestnená na Hvozdnica. Táto animácia zobrazuje zrážkový radar pre vybraný časový rozsah, ako aj 2h predpoveď. Oranžové krížiky označujú blesky. Údaje poskytol nowcast.de (k dispozícii v USA, Európe a Austrálii). Mrholenie alebo slabé sneženie môže byť pre radar neviditeľné. Intenzita zrážok je farebne označená od tyrkysovej po červenú.

Aktuálne satelitné snímky a snímky zrážok pre lokalitu Hvozdnica, Slovensko

Značka polohy je umiestnená naHvozdnica. [Viac]

Satelitné snímky zhotovované v reálnom čase využívajú viditeľné svetlo počas dňa a infračervené žiarenie počas noci. Vzhľadom na to, že infračervené žiarenie zisťuje teplotné rozdiely, snímka v noci nie je tmavá. Nízke oblaky a hmlu je, žiaľ, ťažké odlíšiť od prízemných teplôt, preto môžu byť počas noci takmer neviditeľné. Meteosat satelitné snímky pre Európu sú aktualizované v reálnom čase každých 5 minút. Snímky z GOES-16/GOES-17 (Severná a Južná Amerika) a Himawari (Ázia) sú aktualizované každých 10 minút.

Zrážky sa odhadujú z radarov a satelitov. Odhady zrážok zo satelitov sú v noci menej presné ako počas dňa.

© 2024 meteoblue, NOAA Satellites GOES-16 and EUMETSAT. Údaje o bleskoch poskytuje nowcast.

Späť nahor
×
Dobrý deň,
zdá sa, že používate blokovač reklám.

Inzercia je nevyhnutná na udržiavanie našej bezplatnej webovej stránky s jedinečnými detailmi a presnosťou.

Prosím, zapíšte si www.meteoblue.com na bielu listinu blokovača reklám alebo zvážte kúpu niektorého z našich produktov:

Už máte predplatné?
Potom sa prosím prihláste.